| time (UTC) | temp F | wind direction | speed MPH | gust MPH | rain 1hr in | rain 24hr in | rain mn in | humidity % | barometer mb |
| 20260503032536 | 48 | 214 | 3.0 | 8.0 | 0.00 | 0.00 | 0.00 | 60 | 1013.6 |
| 20260503032034 | 48 | 214 | 3.0 | 7.0 | 0.00 | 0.00 | 0.00 | 60 | 1013.6 |
| 20260503031546 | 48 | 215 | 4.0 | 7.0 | 0.00 | 0.00 | 0.00 | 60 | 1013.7 |
| 20260503031034 | 48 | 228 | 4.0 | 8.0 | 0.00 | 0.00 | 0.00 | 60 | 1013.7 |
| 20260503030537 | 48 | 211 | 3.0 | 8.0 | 0.00 | 0.00 | 0.00 | 61 | 1013.7 |
| 20260503030049 | 48 | 179 | 2.0 | 6.0 | 0.00 | 0.00 | 0.00 | 61 | 1013.8 |
| 20260503025535 | 48 | 211 | 2.0 | 7.0 | 0.00 | 0.00 | 0.00 | 61 | 1013.9 |
| 20260503025036 | 48 | 223 | 3.0 | 8.0 | 0.00 | 0.00 | 0.00 | 61 | 1013.9 |
| 20260503024543 | 48 | 198 | 3.0 | 8.0 | 0.00 | 0.00 | 0.00 | 60 | 1013.9 |
| 20260503024036 | 47 | 200 | 2.0 | 6.0 | 0.00 | 0.00 | 0.00 | 61 | 1013.9 |
| 20260503023536 | 48 | 222 | 3.0 | 6.0 | 0.00 | 0.00 | 0.00 | 60 | 1014.0 |
| 20260503023050 | 47 | 202 | 3.0 | 6.0 | 0.00 | 0.00 | 0.00 | 61 | 1013.9 |
| 20260503022537 | 47 | 194 | 2.0 | 6.0 | 0.00 | 0.00 | 0.00 | 61 | 1013.8 |
| 20260503022040 | 47 | 202 | 2.0 | 4.0 | 0.00 | 0.00 | 0.00 | 61 | 1013.8 |
| 20260503021547 | 47 | 209 | 2.0 | 4.0 | 0.00 | 0.00 | 0.00 | 61 | 1014.0 |
| 20260503021038 | 47 | 204 | 2.0 | 4.0 | 0.00 | 0.00 | 0.00 | 61 | 1013.9 |
| 20260503020537 | 47 | 200 | 2.0 | 4.0 | 0.00 | 0.00 | 0.00 | 60 | 1013.9 |
| 20260503020046 | 48 | 202 | 2.0 | 4.0 | 0.00 | 0.00 | 0.00 | 60 | 1013.8 |
| 20260503015536 | 48 | 209 | 2.0 | 4.0 | 0.00 | 0.00 | 0.00 | 60 | 1013.7 |
| 20260503015036 | 48 | 207 | 2.0 | 4.0 | 0.00 | 0.00 | 0.00 | 59 | 1013.7 |
| 20260503014542 | 48 | 207 | 2.0 | 5.0 | 0.00 | 0.00 | 0.00 | 58 | 1013.6 |
| 20260503014037 | 49 | 207 | 2.0 | 5.0 | 0.00 | 0.00 | 0.00 | 58 | 1013.6 |
| 20260503013537 | 49 | 207 | 2.0 | 5.0 | 0.00 | 0.00 | 0.00 | 57 | 1013.6 |
| 20260503013041 | 49 | 205 | 2.0 | 4.0 | 0.00 | 0.00 | 0.00 | 57 | 1013.6 |
| 20260503012538 | 50 | 212 | 2.0 | 5.0 | 0.00 | 0.00 | 0.00 | 57 | 1013.5 |
| 20260503012036 | 50 | 203 | 2.0 | 5.0 | 0.00 | 0.00 | 0.00 | 56 | 1013.5 |
| 20260503011547 | 50 | 205 | 2.0 | 5.0 | 0.00 | 0.00 | 0.00 | 55 | 1013.5 |
| 20260503011037 | 51 | 198 | 2.0 | 5.0 | 0.00 | 0.00 | 0.00 | 55 | 1013.5 |
| 20260503010535 | 51 | 207 | 1.0 | 6.0 | 0.00 | 0.00 | 0.00 | 54 | 1013.5 |
| 20260503010048 | 52 | 208 | 2.0 | 6.0 | 0.00 | 0.00 | 0.00 | 53 | 1013.4 |
| 20260503005535 | 52 | 209 | 3.0 | 6.0 | 0.00 | 0.00 | 0.00 | 52 | 1013.4 |
| 20260503005034 | 52 | 217 | 2.0 | 6.0 | 0.00 | 0.00 | 0.00 | 53 | 1013.5 |
| 20260503004545 | 53 | 211 | 2.0 | 5.0 | 0.00 | 0.00 | 0.00 | 51 | 1013.4 |
| 20260503004038 | 53 | 212 | 2.0 | 5.0 | 0.00 | 0.00 | 0.00 | 51 | 1013.5 |
| 20260503003538 | 53 | 208 | 2.0 | 5.0 | 0.00 | 0.00 | 0.00 | 50 | 1013.5 |
| 20260503003043 | 54 | 202 | 2.0 | 5.0 | 0.00 | 0.00 | 0.00 | 49 | 1013.6 |
| 20260503002537 | 54 | 204 | 1.0 | 4.0 | 0.00 | 0.00 | 0.00 | 49 | 1013.7 |
| 20260503002034 | 54 | 205 | 2.0 | 7.0 | 0.00 | 0.00 | 0.00 | 48 | 1013.7 |
| 20260503001542 | 54 | 205 | 3.0 | 7.0 | 0.00 | 0.00 | 0.00 | 47 | 1013.8 |
| 20260503001035 | 55 | 219 | 3.0 | 8.0 | 0.00 | 0.00 | 0.00 | 46 | 1013.7 |
| 20260503000536 | 55 | 267 | 1.0 | 8.0 | 0.00 | 0.00 | 0.00 | 47 | 1013.6 |
| 20260503000041 | 56 | 222 | 2.0 | 8.0 | 0.00 | 0.00 | 0.00 | 45 | 1013.6 |
| 20260502235536 | 56 | 212 | 2.0 | 6.0 | 0.00 | 0.00 | 0.00 | 46 | 1013.7 |
| 20260502235035 | 56 | 212 | 2.0 | 10.0 | 0.00 | 0.00 | 0.00 | 47 | 1013.8 |
| 20260502234556 | 56 | 284 | 3.0 | 10.0 | 0.00 | 0.00 | 0.00 | 46 | 1013.8 |
| 20260502234034 | 56 | 206 | 3.0 | 10.0 | 0.00 | 0.00 | 0.00 | 45 | 1013.8 |
| 20260502233535 | 56 | 255 | 3.0 | 10.0 | 0.00 | 0.00 | 0.00 | 47 | 1013.9 |
| 20260502233048 | 56 | 285 | 2.0 | 8.0 | 0.00 | 0.00 | 0.00 | 48 | 1013.9 |
| 20260502232534 | 55 | 240 | 1.0 | 7.0 | 0.00 | 0.00 | 0.00 | 46 | 1014.0 |
| 20260502232034 | 55 | 238 | 1.0 | 11.0 | 0.00 | 0.00 | 0.00 | 47 | 1014.1 |
| 20260502231557 | 55 | 263 | 3.0 | 11.0 | 0.00 | 0.00 | 0.00 | 47 | 1014.0 |
| 20260502231033 | 55 | 269 | 3.0 | 11.0 | 0.00 | 0.00 | 0.00 | 47 | 1014.1 |
| 20260502230535 | 55 | 236 | 3.0 | 9.0 | 0.00 | 0.00 | 0.00 | 46 | 1014.1 |
| 20260502230043 | 55 | 279 | 4.0 | 9.0 | 0.00 | 0.00 | 0.00 | 44 | 1014.2 |
| 20260502225536 | 56 | 214 | 4.0 | 9.0 | 0.00 | 0.00 | 0.00 | 45 | 1014.2 |
| 20260502225037 | 56 | 255 | 4.0 | 9.0 | 0.00 | 0.00 | 0.00 | 45 | 1014.4 |
| 20260502224549 | 56 | 271 | 3.0 | 9.0 | 0.00 | 0.00 | 0.00 | 47 | 1014.5 |
| 20260502224039 | 56 | 256 | 2.0 | 9.0 | 0.00 | 0.00 | 0.00 | 45 | 1014.5 |
| 20260502223537 | 56 | 275 | 3.0 | 8.0 | 0.00 | 0.00 | 0.00 | 45 | 1014.6 |
| 20260502223043 | 56 | 267 | 3.0 | 12.0 | 0.00 | 0.00 | 0.00 | 46 | 1014.7 |
| 20260502222537 | 56 | 286 | 5.0 | 12.0 | 0.00 | 0.00 | 0.00 | 46 | 1014.6 |
| 20260502222034 | 56 | 273 | 4.0 | 13.0 | 0.00 | 0.00 | 0.00 | 44 | 1014.7 |
| 20260502221541 | 56 | 200 | 2.0 | 13.0 | 0.00 | 0.00 | 0.00 | 47 | 1014.6 |
| 20260502221036 | 56 | 330 | 2.0 | 11.0 | 0.00 | 0.00 | 0.00 | 44 | 1014.7 |
| 20260502220534 | 56 | 317 | 4.0 | 14.0 | 0.00 | 0.00 | 0.00 | 45 | 1014.6 |
| 20260502220048 | 57 | 267 | 3.0 | 14.0 | 0.00 | 0.00 | 0.00 | 45 | 1014.8 |
| 20260502215534 | 57 | 273 | 5.0 | 14.0 | 0.00 | 0.00 | 0.00 | 45 | 1014.6 |
| 20260502215034 | 57 | 263 | 4.0 | 11.0 | 0.00 | 0.00 | 0.00 | 47 | 1014.7 |
| 20260502214545 | 56 | 273 | 3.0 | 9.0 | 0.00 | 0.00 | 0.00 | 47 | 1014.6 |
| 20260502214034 | 55 | 0 | 3.0 | 16.0 | 0.00 | 0.00 | 0.00 | 45 | 1014.7 |
| 20260502213538 | 56 | 215 | 4.0 | 16.0 | 0.00 | 0.00 | 0.00 | 44 | 1014.7 |
| 20260502213042 | 56 | 225 | 5.0 | 16.0 | 0.00 | 0.00 | 0.00 | 47 | 1014.6 |
| 20260502212538 | 55 | 280 | 3.0 | 10.0 | 0.00 | 0.00 | 0.00 | 46 | 1014.9 |
| 20260502212037 | 55 | 298 | 4.0 | 9.0 | 0.00 | 0.00 | 0.00 | 47 | 1014.8 |
| 20260502211542 | 55 | 343 | 0.0 | 7.0 | 0.00 | 0.00 | 0.00 | 49 | 1014.9 |
| 20260502211034 | 55 | 344 | 3.0 | 10.0 | 0.00 | 0.00 | 0.00 | 44 | 1015.0 |
| 20260502210534 | 55 | 302 | 4.0 | 12.0 | 0.00 | 0.00 | 0.00 | 44 | 1015.0 |
| 20260502210040 | 56 | 329 | 3.0 | 12.0 | 0.00 | 0.00 | 0.00 | 46 | 1015.1 |
| 20260502205534 | 55 | 311 | 3.0 | 8.0 | 0.00 | 0.00 | 0.00 | 51 | 1015.0 |
| 20260502205034 | 54 | 313 | 3.0 | 9.0 | 0.00 | 0.00 | 0.00 | 49 | 1015.3 |
| 20260502204548 | 54 | 303 | 3.0 | 9.0 | 0.00 | 0.00 | 0.00 | 46 | 1015.2 |
| 20260502204037 | 54 | 296 | 1.0 | 10.0 | 0.00 | 0.00 | 0.00 | 46 | 1015.2 |
| 20260502203538 | 54 | 274 | 4.0 | 11.0 | 0.00 | 0.00 | 0.00 | 48 | 1015.5 |
| 20260502203047 | 54 | 277 | 3.0 | 13.0 | 0.00 | 0.00 | 0.00 | 49 | 1015.4 |
| 20260502202540 | 55 | 195 | 5.0 | 13.0 | 0.00 | 0.00 | 0.00 | 46 | 1015.6 |
| 20260502202038 | 55 | 260 | 3.0 | 9.0 | 0.00 | 0.00 | 0.00 | 47 | 1015.5 |
| 20260502201548 | 55 | 317 | 3.0 | 13.0 | 0.00 | 0.00 | 0.00 | 45 | 1015.6 |
| 20260502201035 | 54 | 328 | 4.0 | 13.0 | 0.00 | 0.00 | 0.00 | 45 | 1015.8 |
| 20260502200535 | 55 | 215 | 5.0 | 11.0 | 0.00 | 0.00 | 0.00 | 49 | 1015.8 |
| 20260502200042 | 55 | 201 | 4.0 | 11.0 | 0.00 | 0.00 | 0.00 | 49 | 1015.8 |
| 20260502195534 | 55 | 212 | 3.0 | 9.0 | 0.00 | 0.01 | 0.00 | 50 | 1015.9 |
| 20260502195035 | 54 | 238 | 2.0 | 12.0 | 0.00 | 0.01 | 0.00 | 50 | 1016.1 |
| 20260502194548 | 53 | 213 | 4.0 | 12.0 | 0.00 | 0.01 | 0.00 | 46 | 1016.2 |
| 20260502194034 | 54 | 300 | 2.0 | 9.0 | 0.00 | 0.01 | 0.00 | 47 | 1016.2 |
| 20260502193535 | 54 | 265 | 2.0 | 12.0 | 0.00 | 0.01 | 0.00 | 51 | 1016.4 |
| 20260502193049 | 54 | 218 | 4.0 | 13.0 | 0.00 | 0.01 | 0.00 | 48 | 1016.3 |
| 20260502192536 | 54 | 257 | 4.0 | 13.0 | 0.00 | 0.01 | 0.00 | 45 | 1016.4 |
| 20260502192033 | 54 | 225 | 4.0 | 9.0 | 0.00 | 0.01 | 0.00 | 54 | 1016.5 |
| 20260502191548 | 53 | 263 | 2.0 | 10.0 | 0.00 | 0.01 | 0.00 | 52 | 1016.5 |
| 20260502191035 | 53 | 298 | 5.0 | 10.0 | 0.00 | 0.01 | 0.00 | 48 | 1016.7 |
| 20260502190536 | 54 | 296 | 3.0 | 10.0 | 0.00 | 0.01 | 0.00 | 52 | 1016.6 |
| 20260502190047 | 54 | 279 | 4.0 | 11.0 | 0.00 | 0.01 | 0.00 | 49 | 1016.8 |
| 20260502185532 | 54 | 228 | 5.0 | 11.0 | 0.00 | 0.01 | 0.00 | 52 | 1016.9 |
| 20260502185033 | 53 | 319 | 3.0 | 10.0 | 0.00 | 0.01 | 0.00 | 49 | 1017.0 |
| 20260502184554 | 54 | 221 | 4.0 | 10.0 | 0.00 | 0.01 | 0.00 | 48 | 1017.0 |
| 20260502184035 | 54 | 290 | 3.0 | 10.0 | 0.00 | 0.01 | 0.00 | 53 | 1017.0 |
| 20260502183534 | 53 | 19 | 5.0 | 13.0 | 0.00 | 0.01 | 0.00 | 50 | 1017.0 |
| 20260502183044 | 53 | 360 | 7.0 | 13.0 | 0.00 | 0.01 | 0.00 | 53 | 1017.2 |
| 20260502182534 | 53 | 307 | 4.0 | 12.0 | 0.00 | 0.01 | 0.00 | 50 | 1017.2 |
| 20260502182036 | 53 | 348 | 4.0 | 10.0 | 0.00 | 0.01 | 0.00 | 51 | 1017.3 |
| 20260502181544 | 53 | 293 | 2.0 | 10.0 | 0.00 | 0.01 | 0.00 | 51 | 1017.3 |
| 20260502181033 | 54 | 336 | 5.0 | 13.0 | 0.00 | 0.01 | 0.00 | 48 | 1017.2 |
| 20260502180533 | 54 | 309 | 3.0 | 13.0 | 0.00 | 0.01 | 0.00 | 55 | 1017.2 |
| 20260502164034 | 52 | 318 | 4.0 | 12.0 | 0.00 | 0.01 | 0.00 | 56 | 1018.1 |
| 20260502163535 | 52 | 336 | 6.0 | 12.0 | 0.00 | 0.01 | 0.00 | 57 | 1018.1 |
| 20260502163043 | 51 | 343 | 3.0 | 8.0 | 0.00 | 0.01 | 0.00 | 56 | 1018.2 |
| 20260502162533 | 51 | 69 | 3.0 | 10.0 | 0.00 | 0.01 | 0.00 | 57 | 1018.1 |
| 20260502162037 | 50 | 317 | 2.0 | 10.0 | 0.00 | 0.01 | 0.00 | 54 | 1018.2 |
| 20260502161541 | 50 | 263 | 4.0 | 12.0 | 0.00 | 0.01 | 0.00 | 57 | 1018.4 |
| 20260502161035 | 50 | 263 | 2.0 | 12.0 | 0.00 | 0.01 | 0.00 | 57 | 1018.4 |
| 20260502160539 | 50 | 15 | 6.0 | 12.0 | 0.00 | 0.01 | 0.00 | 56 | 1018.4 |
| 20260502152034 | 49 | 344 | 5.0 | 11.0 | 0.00 | 0.01 | 0.00 | 63 | 1018.6 |
| 20260502151543 | 48 | 298 | 2.0 | 10.0 | 0.00 | 0.01 | 0.00 | 67 | 1018.6 |
| 20260502151036 | 48 | 309 | 4.0 | 14.0 | 0.00 | 0.01 | 0.00 | 64 | 1018.7 |
| 20260502150533 | 48 | 360 | 6.0 | 14.0 | 0.00 | 0.01 | 0.00 | 64 | 1018.7 |
| 20260502130537 | 37 | 290 | 1.0 | 6.0 | 0.00 | 0.01 | 0.00 | 98 | 1019.3 |
| 20260502123541 | 34 | 0 | 0.0 | 4.0 | 0.00 | 0.01 | 0.00 | 98 | 1019.1 |
| 20260502123049 | 33 | 259 | 1.0 | 3.0 | 0.00 | 0.01 | 0.00 | 98 | 1019.3 |
| 20260502122534 | 33 | 250 | 0.0 | 3.0 | 0.00 | 0.01 | 0.00 | 98 | 1019.2 |
| 20260502122039 | 32 | 250 | 0.0 | 3.0 | 0.00 | 0.01 | 0.00 | 98 | 1019.0 |
| 20260502121552 | 31 | 0 | 0.0 | 3.0 | 0.00 | 0.01 | 0.00 | 98 | 1019.1 |
| 20260502121037 | 31 | 0 | 0.0 | 2.0 | 0.00 | 0.01 | 0.00 | 98 | 1019.0 |
| 20260502120534 | 30 | 162 | 0.0 | 1.0 | 0.00 | 0.01 | 0.00 | 98 | 1018.9 |
| 20260502115540 | 29 | 0 | 0.0 | 1.0 | 0.00 | 0.01 | 0.00 | 98 | 1018.8 |
| 20260502115034 | 29 | 0 | 0.0 | 0.0 | 0.00 | 0.01 | 0.00 | 98 | 1018.8 |
| 20260502114539 | 28 | 0 | 0.0 | 0.0 | 0.00 | 0.01 | 0.00 | 98 | 1018.7 |
| 20260502114033 | 28 | 0 | 0.0 | 0.0 | 0.00 | 0.01 | 0.00 | 98 | 1018.8 |
| 20260502113533 | 27 | 0 | 0.0 | 0.0 | 0.00 | 0.01 | 0.00 | 97 | 1018.7 |
| 20260502113051 | 27 | 0 | 0.0 | 0.0 | 0.00 | 0.01 | 0.00 | 97 | 1018.7 |
| 20260502112538 | 27 | 0 | 0.0 | 0.0 | 0.00 | 0.01 | 0.00 | 97 | 1018.6 |
| 20260502112033 | 27 | 0 | 0.0 | 0.0 | 0.00 | 0.01 | 0.00 | 97 | 1018.6 |
| 20260502111604 | 26 | 0 | 0.0 | 0.0 | 0.00 | 0.01 | 0.00 | 97 | 1018.4 |
| 20260502111033 | 26 | 0 | 0.0 | 0.0 | 0.00 | 0.01 | 0.00 | 97 | 1018.6 |
| 20260502110533 | 26 | 0 | 0.0 | 0.0 | 0.00 | 0.01 | 0.00 | 97 | 1018.7 |
| 20260502110050 | 26 | 0 | 0.0 | 0.0 | 0.00 | 0.01 | 0.00 | 96 | 1018.5 |
| 20260502105538 | 26 | 0 | 0.0 | 0.0 | 0.00 | 0.01 | 0.00 | 96 | 1018.5 |
| 20260502105033 | 26 | 0 | 0.0 | 0.0 | 0.00 | 0.01 | 0.00 | 96 | 1018.5 |
| 20260502104550 | 26 | 0 | 0.0 | 0.0 | 0.00 | 0.01 | 0.00 | 96 | 1018.6 |
| 20260502104035 | 26 | 0 | 0.0 | 0.0 | 0.00 | 0.01 | 0.00 | 96 | 1018.6 |
| 20260502103535 | 26 | 0 | 0.0 | 0.0 | 0.00 | 0.01 | 0.00 | 96 | 1018.6 |
| 20260502103101 | 26 | 0 | 0.0 | 0.0 | 0.00 | 0.01 | 0.00 | 96 | 1018.6 |
| 20260502102535 | 26 | 0 | 0.0 | 0.0 | 0.00 | 0.01 | 0.00 | 96 | 1018.5 |
| 20260502102036 | 26 | 0 | 0.0 | 0.0 | 0.00 | 0.01 | 0.00 | 96 | 1018.6 |
| 20260502101601 | 26 | 0 | 0.0 | 0.0 | 0.00 | 0.01 | 0.00 | 96 | 1018.5 |
| 20260502101035 | 26 | 0 | 0.0 | 0.0 | 0.00 | 0.01 | 0.00 | 96 | 1018.6 |
| 20260502100533 | 26 | 0 | 0.0 | 0.0 | 0.00 | 0.01 | 0.00 | 96 | 1018.6 |
| 20260502091036 | 26 | 0 | 0.0 | 0.0 | 0.00 | 0.01 | 0.00 | 96 | 1018.7 |
| 20260502090535 | 26 | 0 | 0.0 | 0.0 | 0.00 | 0.01 | 0.00 | 96 | 1018.5 |
| 20260502071037 | 27 | 0 | 0.0 | 0.0 | 0.00 | 0.01 | 0.00 | 95 | 1018.5 |
| 20260502070535 | 27 | 0 | 0.0 | 0.0 | 0.00 | 0.01 | 0.00 | 95 | 1018.4 |
| 20260502070040 | 27 | 0 | 0.0 | 0.0 | 0.00 | 0.01 | 0.00 | 95 | 1018.7 |
| 20260502065537 | 27 | 0 | 0.0 | 0.0 | 0.00 | 0.01 | 0.00 | 95 | 1018.6 |
| 20260502065036 | 27 | 0 | 0.0 | 0.0 | 0.00 | 0.01 | 0.00 | 95 | 1018.5 |
| 20260502064539 | 27 | 0 | 0.0 | 0.0 | 0.00 | 0.01 | 0.00 | 95 | 1018.6 |
| 20260502064037 | 27 | 0 | 0.0 | 0.0 | 0.00 | 0.01 | 0.00 | 95 | 1018.7 |
| 20260502063536 | 27 | 0 | 0.0 | 0.0 | 0.00 | 0.01 | 0.00 | 95 | 1018.7 |
| 20260502063048 | 27 | 0 | 0.0 | 0.0 | 0.00 | 0.01 | 0.00 | 95 | 1018.7 |
| 20260502062533 | 27 | 0 | 0.0 | 0.0 | 0.00 | 0.01 | 0.00 | 95 | 1018.7 |
| 20260502062032 | 27 | 0 | 0.0 | 0.0 | 0.00 | 0.01 | 0.00 | 95 | 1018.7 |
| 20260502061543 | 27 | 0 | 0.0 | 0.0 | 0.00 | 0.01 | 0.00 | 95 | 1018.8 |
| 20260502061034 | 27 | 0 | 0.0 | 0.0 | 0.00 | 0.01 | 0.00 | 95 | 1018.7 |
| 20260502060534 | 27 | 0 | 0.0 | 0.0 | 0.00 | 0.01 | 0.00 | 95 | 1018.8 |
| 20260502060040 | 27 | 0 | 0.0 | 0.0 | 0.00 | 0.01 | 0.00 | 95 | 1018.7 |
| 20260502055533 | 28 | 0 | 0.0 | 0.0 | 0.00 | 0.02 | 0.00 | 95 | 1018.8 |
| 20260502055035 | 28 | 0 | 0.0 | 0.0 | 0.00 | 0.02 | 0.00 | 95 | 1018.7 |
| 20260502054543 | 28 | 0 | 0.0 | 0.0 | 0.00 | 0.02 | 0.00 | 95 | 1018.7 |
| 20260502054038 | 28 | 0 | 0.0 | 0.0 | 0.00 | 0.02 | 0.00 | 95 | 1018.8 |
| 20260502053535 | 28 | 0 | 0.0 | 0.0 | 0.00 | 0.02 | 0.00 | 94 | 1018.8 |
| 20260502053039 | 28 | 0 | 0.0 | 0.0 | 0.00 | 0.02 | 0.00 | 94 | 1018.6 |
| 20260502052535 | 28 | 0 | 0.0 | 0.0 | 0.00 | 0.02 | 0.00 | 94 | 1018.7 |
| 20260502052038 | 28 | 0 | 0.0 | 0.0 | 0.00 | 0.02 | 0.00 | 95 | 1018.8 |
| 20260502051548 | 28 | 0 | 0.0 | 0.0 | 0.00 | 0.02 | 0.00 | 94 | 1018.8 |
| 20260502051035 | 28 | 0 | 0.0 | 0.0 | 0.00 | 0.02 | 0.00 | 94 | 1018.8 |
| 20260502050535 | 28 | 0 | 0.0 | 0.0 | 0.00 | 0.02 | 0.00 | 94 | 1018.8 |
| 20260502050042 | 28 | 0 | 0.0 | 0.0 | 0.00 | 0.02 | 0.00 | 94 | 1018.8 |
| 20260502045533 | 28 | 0 | 0.0 | 0.0 | 0.00 | 0.03 | 0.02 | 94 | 1018.7 |
| 20260502045033 | 29 | 0 | 0.0 | 0.0 | 0.00 | 0.03 | 0.02 | 94 | 1018.7 |
| 20260502044541 | 29 | 0 | 0.0 | 0.0 | 0.00 | 0.03 | 0.02 | 94 | 1018.7 |
| 20260502044035 | 29 | 0 | 0.0 | 0.0 | 0.00 | 0.03 | 0.02 | 94 | 1018.7 |
| 20260502043534 | 29 | 0 | 0.0 | 0.0 | 0.00 | 0.03 | 0.02 | 94 | 1018.7 |
| 20260502043040 | 29 | 0 | 0.0 | 0.0 | 0.00 | 0.03 | 0.02 | 94 | 1018.7 |
| 20260502042533 | 29 | 0 | 0.0 | 0.0 | 0.00 | 0.03 | 0.02 | 94 | 1018.6 |
| 20260502042033 | 29 | 0 | 0.0 | 0.0 | 0.00 | 0.03 | 0.02 | 93 | 1018.5 |
| 20260502041540 | 29 | 0 | 0.0 | 0.0 | 0.00 | 0.03 | 0.02 | 93 | 1018.6 |
| 20260502041038 | 29 | 0 | 0.0 | 0.0 | 0.00 | 0.03 | 0.02 | 93 | 1018.7 |
| 20260502040533 | 29 | 0 | 0.0 | 0.0 | 0.00 | 0.03 | 0.02 | 93 | 1018.6 |
| 20260502040042 | 29 | 0 | 0.0 | 0.0 | 0.00 | 0.03 | 0.02 | 93 | 1018.7 |
| 20260502035537 | 29 | 0 | 0.0 | 0.0 | 0.00 | 0.03 | 0.02 | 93 | 1018.6 |
| 20260502035035 | 29 | 0 | 0.0 | 0.0 | 0.00 | 0.03 | 0.02 | 92 | 1018.6 |
| 20260502034545 | 30 | 0 | 0.0 | 0.0 | 0.00 | 0.03 | 0.02 | 92 | 1018.6 |
| 20260502034035 | 30 | 0 | 0.0 | 0.0 | 0.00 | 0.03 | 0.02 | 92 | 1018.5 |
| 20260502033533 | 30 | 0 | 0.0 | 0.0 | 0.00 | 0.03 | 0.02 | 92 | 1018.6 |
| 20260502033046 | 30 | 0 | 0.0 | 0.0 | 0.00 | 0.03 | 0.02 | 92 | 1018.4 |